TJS-11

Last updated on Fri Sep 12 2025 00:02:51 GMT+0000 (Coordinated Universal Time)

1 59020U 24037A 25254.61693182 -.00000372 00000+0 00000+0 0 9997 2 59020 4.5948 324.0047 0003678 257.6972 111.4341 1.00276777 5793
UTC large
Height (km)
Speed (km/s)
/
Latitude / Longitude
Inclination (degrees)
Orbital Period (minutes)
Azimuth
Elevation
Range (km)
Doppler Factor

Next 0 passes for location: London (51.5072 / 0.1276)

Sorry there are no passes over London.